SCP
0 0 0 0 0 0 0 0 0 0 0 0 0 0 0 0 0 0 0 0 0 0 0 0 0 0 0 0 0 0 0 0 0 0 0 0 0 0 0 0 0 0 0 0 0 0 0 0 0 0 0 0 0 0
0 0 0 0 0 0 0 0 0 0 0 0 0 0 0 0 0 0 0 0 0 0 0 0 0 0 0 0 0 0 0 0 0 0 0 0 0 0 0 0 0 0 0 0 0 0 0 0 0 0 0 0 0 0
0 0 0 0 0 0 0 0 0 0 0 0 0 0 0 0 0 0 0 0 0 0 0 0 0 0 0 0 0 0 0 0 0 0 0 0 0 0 0 0 0 0 0 0 0 0 0 0 0 0 0 0 0 0
0 0 0 0 0 0 0 0 0 0 0 0 0 0 0 0 0 0 0 0 0 0 0 0 0 0 0 0 0 0 0 0 0 0 0 0 0 0 0 0 0 0 0 0 0 0 0 0 0 0 0 0 0 0
0 0 0 0 0 0 0 0 0 0 0 0 0 0 0 0 0 0 0 0 0 0 0 0 0 0 0 0 0 0 0 0 0 0 0 0 0 0 0 0 0 0 0 0 0 0 0 0 0 0 0 0 0 0
0 0 0 0 0 0 0 0 0 0 0 0 0 0 0 0 0 0 0 0 0 0 0 0 0 0 0 0 0 0 0 0 0 0 0 0 0 0 0 0 0 0 0 0 0 0 0 0 0 0 0 0 0 0
0 0 0 0 0 0 0 0 0 0 0 0 0 0 0 0 0 0 0 0 0 0 0 0 0 0 0 0 0 0 0 0 0 0 0 0 0 0 0 0 0 0 0 0 0 0 0 0 0 0 0 0 0 0
0 0 0 0 0 0 0 0 0 0 0 0 0 0 0 0 0 0 0 0 0 0 0 0 0 0 0 0 0 0 0 0 0 0 0 0 0 0 0 0 0 0 0 0 0 0 0 0 0 0 0 0 0 0
0 0 0 0 0 0 0 0 0 0 0 0 0 0 0 0 0 0 0 0 0 0 0 0 0 0 0 0 0 0 0 0 0 0 0 0 0 0 0 0 0 0 0 0 0 0 0 0 0 0 0 0 0 0
0 0 0 0 0 0 0 0 0 0 0 0 0 0 0 0 0 0 0 0 0 0 0 0 0 0 0 0 0 0 0 0 0 0 0 0 0 0 0 0 0 0 0 0 0 0 0 0 0 0 0 0 0 0
0 0 0 0 0 0 0 0 0 0 0 0 0 0 0 0 0 0 0 0 0 0 0 0 0 0 0 0 0 0 0 0 0 0 0 0 0 0 0 0 0 0 0 0 0 0 0 0 0 0 0 0 0 0
0 0 0 0 0 0 0 0 0 0 0 0 0 0 0 0 0 0 0 0 0 0 0 0 0 0 0 0 0 0 0 0 0 0 0 0 0 0 0 0 0 0 0 0 0 0 0 0 0 0 0 0 0 0
0 0 0 0 0 0 0 0 0 0 0 0 0 0 0 0 0 0 0 0 0 0 0 0 0 0 0 0 0 0 0 0 0 0 0 0 0 0 0 0 0 0 0 0 0 0 0 0 0 0 0 0 0 0
-0 -0 -0 -0 0 0 -0 0 0 0 0 0 0 0 0 0 0 0 0 0 0 0 0 0 0 0 0 0 0 0 0 0 0 0 0 0 0 0 0 0 0 0 0 0 0 0 0 0 0 0 0 0 0 0
0 0 0 0 0 -0 0 0 0 0 0 0 0 0 0 0 0 0 0 0 0 0 0 0 0 0 0 0 0 0 0 0 0 0 0 0 0 0 0 0 0 0 0 0 0 0 0 0 0 0 0 0 0 0
0 0 0 0 0 0 0 0 0 0 0 0 0 0 0 0 0 0 0 0 0 0 0 0 0 0 0 0 0 0 0 0 0 0 0 0 0 0 0 0 0 0 0 0 0 0 0 0 0 0 0 0 0 0
0 0 0 0 0 0 0 0 0 0 0 0 0 0 0 0 0 0 0 0 0 0 0 0 0 0 0 0 0 0 0 0 0 0 0 0 0 0 0 0 0 0 0 0 0 0 0 0 0 0 0 0 0 0
0 0 0 0 0 0 0 0 0 0 0 0 0 0 0 0 0 0 0 0 0 0 0 0 0 0 0 0 0 0 0 0 0 0 0 0 0 0 0 0 0 0 0 0 0 0 0 0 0 0 0 0 0 0
0 0 0 0 0 0 0 0 0 0 0 0 0 0 0 0 0 0 0 0 0 0 0 0 0 0 0 0 0 0 0 0 0 0 0 0 0 0 0 0 0 0 0 0 0 0 0 0 0 0 0 0 0 0
0 -0 -0 -0 0 0 0 0 0 -0 -0 0 0 0 0 0 0 0 0 0 0 0 0 0 0 0 0 0 0 0 0 0 0 0 0 0 0 0 0 0 0 0 0 0 0 0 0 0 0 0 0 0 0 0
0 0 0 0 0 0 0 0 0 0 0 0 0 0 0 0 0 0 0 0 0 0 0 0 0 0 0 0 0 0 0 0 0 0 0 0 0 0 0 0 0 0 0 0 0 0 0 0 0 0 0 0 0 0
0 0 0 0 0 0 0 0 0 0 0 0 0 0 0 0 0 0 0 0 0 0 0 0 0 0 0 0 0 0 0 0 0 0 0 0 0 0 0 0 0 0 0 0 -0 0 0 0 0 0 0 0 0 0
0 0 0 0 0 0 0 0 0 0 0 0 0 0 0 0 0 0 0 0 0 0 0 0 0 0 0 0 0 0 0 0 0 0 0 0 0 0 0 0 0 0 0 -0 0 0 0 0 0 0 0 0 0 0
-0 -0 0 0 0 0 0 0 0 0 0 0 0 0 0 0 0 0 0 0 0 0 0 0 0 0 0 0 0 0 0 0 0 0 0 0 0 0 0 0 -0 -0 -0 0 0 0 0 0 0 0 0 0 0 0
0 -0 0 0 0 0 0 0 0 0 0 0 0 0 0 0 0 0 0 0 0 0 0 0 0 0 0 0 0 0 0 0 0 0 0 0 0 0 -0 -0 -0 -0 -0 -0 -0 -0 0 0 0 0 0 0 0 0
-0 -0 -0 0 0 0 -0 0 0 0 0 0 0 0 0 0 0 0 0 0 0 0 0 0 0 0 0 0 0 0 0 0 0 0 0 -0 -0 0 -0 -0 -0 -0 -0 -0 -0 -0 0 0 0 0 0 0 0 0
-0 -0 -0 -0 -0 0 0 0 0 0 0 0 0 0 0 0 0 0 0 0 0 0 0 0 0 0 0 0 0 0 0 -0 -0 0 0 0 -0 -0 0 -0 -0 -0 -0 -0 -0 -0 0 0 0 0 0 0 0 0
0 -0 -0 -0 0 0 -0 0 0 0 0 0 0 0 0 0 0 0 0 0 0 0 0 0 0 0 0 0 0 -0 0 0 -0 0 0 -0 0 0 0 0 -0 -0 -0 0 0 0 0 0 0 0 0 0 0 0
0 -0 0 -0 0 -0 0 -0 -0 -0 0 -0 -0 0 0 0 0 0 0 0 0 0 0 0 0 0 0 0 0 0 0 0 0 0 0 0 0 0 0 0 0 0 0 0 0 0 0 0 0 0 0 0 0 0
-0 -0 0 -0 -0 -0 -0 -0 -0 -0 -0 -0 -0 -0 -0 -0 0 0 0 0 0 0 0 0 0 0 0 0 0 0 0 0 0 0 0 0 0 0 0 0 0 0 0 0 0 0 0 0 0 0 0 0 0 0
0 -0 -0 0 0 0 -0 -0 -0 -0 -0 -0 -0 -0 -0 -0 0 0 0 0 0 0 0 0 0 0 0 0 0 0 0 0 0 0 0 0 0 0 0 0 0 0 0 0 0 0 0 0 0 0 0 0 0 0
0 -0 -0 -0 -0 -0 0 0 0 0 0 0 0 0 0 0 0 0 0 0 0 0 0 0 0 0 0 0 0 0 0 0 0 0 0 0 0 0 0 0 0 0 0 0 0 0 0 0 0 0 0 0 0 0
0 0 0 0 0 0 0 0 0 0 0 0 0 0 0 0 0 0 0 0 0 0 0 0 0 0 0 0 0 0 0 0 0 0 0 0 0 0 0 0 0 0 0 0 0 0 0 0 0 0 0 0 0 0
Wind_Speed_500mb
57 59 56 55 56 54 53 51 53 50 49 47 45 44 59 47 51 47 57 60 61 27 46 39 51 41 22 23 9 10 3 4 4 5 7 7 7 9 1 8 8 10 8 7 5 3 14 11 4 10 11 44 45 46
58 58 58 59 59 61 57 57 57 57 54 55 52 45 42 57 49 43 54 57 49 56 30 37 66 74 66 59 36 31 18 15 21 5 3 5 4 0 8 12 6 8 13 8 19 12 10 19 30 65 63 49 66 55
58 58 62 61 60 64 66 56 58 59 62 59 55 54 54 53 52 50 56 60 50 53 42 53 81 85 65 58 52 35 25 40 39 40 13 9 14 8 7 13 8 12 19 17 27 25 33 62 74 72 70 71 74 68
62 64 62 63 66 63 63 61 61 62 56 55 54 57 53 50 47 44 53 59 59 30 11 27 48 68 68 55 66 80 75 35 41 42 23 8 7 22 11 16 19 22 8 14 30 31 44 60 65 70 60 55 52 50
61 61 63 64 66 68 65 62 61 63 62 61 60 56 55 51 48 45 53 61 61 55 6 8 24 41 43 45 56 56 69 71 38 18 10 12 13 13 15 14 24 35 37 23 30 48 41 53 60 42 37 36 40 38
63 62 63 62 63 65 66 68 67 63 61 59 59 61 60 54 45 45 41 60 66 63 18 6 19 34 45 51 51 59 63 58 45 21 13 21 40 21 10 20 50 59 55 64 57 72 63 60 51 41 32 31 34 33
64 66 62 61 59 60 61 61 61 62 60 59 59 59 59 56 56 58 17 9 24 39 16 6 7 25 41 52 66 58 56 38 37 28 19 25 41 28 13 29 59 56 62 71 68 66 51 48 25 27 23 29 35 39
59 56 57 56 55 55 56 57 58 58 57 57 57 58 57 60 62 66 71 58 37 23 17 6 6 1 28 20 19 31 28 31 23 19 10 10 21 19 15 30 58 66 66 59 55 45 37 32 28 26 27 30 35 40
52 50 50 54 53 52 52 52 53 53 52 52 52 53 52 67 59 62 68 60 59 39 8 8 6 8 21 15 15 19 19 8 17 11 9 16 6 12 14 32 47 54 36 32 28 24 21 18 19 21 26 31 37 42
51 50 49 45 45 47 50 50 50 50 47 45 46 45 23 36 36 37 29 29 33 33 30 8 22 6 26 21 12 13 16 7 8 10 13 9 21 46 34 38 28 19 18 15 11 13 16 18 20 24 28 31 36 47
40 38 42 47 47 46 45 45 48 45 41 43 29 31 19 33 44 28 16 17 15 3 14 12 38 7 17 5 8 17 5 4 5 8 10 5 9 10 28 22 20 18 18 16 15 16 18 20 24 29 32 36 42 49
46 45 44 43 42 43 43 43 43 45 54 45 26 30 39 21 15 11 11 7 7 13 11 9 18 29 18 17 6 10 6 5 11 3 5 6 9 13 17 16 15 13 11 12 12 15 19 23 27 33 38 44 47 52
46 42 46 50 47 43 38 39 43 45 47 58 28 16 16 18 14 17 18 4 3 7 24 20 7 19 14 18 6 7 10 10 8 4 8 10 9 11 13 9 7 8 9 11 15 20 24 29 32 37 44 44 49 51
50 49 48 46 46 47 45 42 40 41 40 15 15 12 11 8 9 9 12 13 18 27 49 37 14 7 12 8 5 7 3 6 1 5 13 3 10 12 7 6 7 9 12 16 21 25 30 35 40 40 40 43 46 48
35 42 46 46 42 44 46 44 40 46 25 16 13 12 10 6 5 13 20 25 26 35 43 15 11 13 4 5 7 5 3 9 12 11 5 10 13 9 5 5 8 13 18 22 27 32 35 38 40 42 37 37 38 39
21 21 31 39 37 35 36 37 38 46 20 11 4 7 8 5 5 10 21 16 32 45 26 12 7 7 8 6 9 13 11 13 9 5 14 18 9 4 6 8 13 20 24 28 30 33 35 36 37 38 35 30 28 29
10 5 6 19 28 25 27 32 29 12 7 6 3 4 9 12 6 4 10 20 41 37 7 7 11 16 4 5 6 9 12 6 15 24 19 12 7 6 7 10 16 21 24 27 29 27 29 28 29 29 27 20 19 17
8 8 7 8 18 25 25 19 9 7 8 8 1 3 7 9 15 11 12 32 21 19 20 10 13 7 11 13 8 6 7 18 19 16 12 6 4 4 9 12 15 17 18 20 23 23 24 25 24 20 19 17 14 9
12 8 5 11 15 16 9 7 4 7 6 5 10 8 5 12 12 11 14 27 15 16 21 9 7 6 6 2 5 11 22 16 14 15 9 5 2 3 6 9 10 12 15 17 18 18 19 19 20 19 16 12 11 8
14 8 6 16 20 7 9 9 7 10 5 7 8 9 6 8 12 12 14 18 17 8 6 6 4 9 9 12 14 19 19 15 13 12 12 8 4 4 4 6 8 11 12 14 16 17 17 15 15 13 11 9 8 6
12 5 3 16 8 13 13 8 12 9 11 9 14 7 9 11 7 7 9 19 10 4 3 5 11 20 21 16 13 12 10 8 10 10 12 16 12 9 7 7 8 9 11 15 17 19 20 22 22 19 15 12 11 10
8 9 9 9 10 9 13 12 12 10 9 10 7 5 7 3 3 2 4 3 5 5 6 12 23 20 17 15 13 12 12 14 15 16 17 18 15 10 6 4 6 7 10 13 15 17 18 18 19 19 18 17 16 15
12 8 8 9 9 10 6 7 8 8 5 3 4 4 4 4 5 3 0 2 4 6 15 23 20 19 18 18 19 19 20 19 19 18 16 13 9 5 0 3 6 7 10 11 12 13 15 17 17 16 16 15 15 15
10 8 12 11 15 4 5 9 7 6 6 5 2 4 3 5 9 3 2 4 7 20 23 25 26 27 25 24 23 22 20 19 17 15 11 7 3 1 4 6 7 7 10 11 11 13 13 14 15 17 18 18 19 19
7 19 13 11 14 8 8 6 7 5 5 3 3 2 3 8 2 2 3 3 17 27 26 26 27 23 23 25 23 20 17 13 10 6 4 6 8 7 7 8 7 6 6 7 8 10 12 14 16 18 20 22 22 22
14 17 10 2 8 5 2 5 3 3 3 3 1 4 3 4 6 4 5 3 7 26 27 28 29 27 24 21 18 12 8 5 4 4 6 7 9 11 12 12 9 6 4 6 9 12 15 18 20 21 22 23 27 29
10 8 11 13 6 5 7 7 5 5 5 3 3 3 5 5 4 6 5 3 5 16 21 21 21 18 16 15 11 8 4 3 3 7 9 10 12 12 12 12 9 7 8 11 15 19 21 22 23 25 27 26 28 32
8 14 5 14 6 8 7 3 4 3 2 2 3 2 8 10 6 5 5 5 8 19 24 25 24 21 15 13 9 5 3 3 3 5 6 7 6 7 6 6 7 10 13 18 21 23 25 27 29 31 32 35 36 38
9 18 10 8 6 8 4 3 4 2 3 1 4 3 5 3 1 3 4 7 11 18 21 22 21 18 15 11 8 4 2 2 4 4 4 4 4 3 5 8 12 17 22 26 25 28 30 34 37 41 43 47 47 46
12 20 7 3 4 3 4 4 3 2 3 4 7 7 7 4 3 4 5 8 16 20 20 20 18 17 14 12 9 7 7 8 9 11 12 9 11 14 16 18 21 24 29 31 32 31 34 41 45 49 53 55 54 53
14 11 4 3 1 2 5 9 11 9 7 5 8 7 8 9 4 9 4 11 17 21 22 21 19 17 13 8 8 10 10 13 11 12 15 19 20 21 23 26 29 32 35 37 40 44 50 56 58 59 58 58 55 55
12 8 3 5 4 7 7 11 4 2 2 2 2 5 7 7 5 8 16 3 10 17 18 18 15 12 14 14 12 10 9 10 13 17 20 25 30 34 38 41 43 47 50 53 57 62 66 67 68 64 63 60 57 54
7 9 6 6 5 5 12 16 7 6 1 3 3 7 7 4 2 11 14 14 2 9 16 16 13 9 5 2 4 8 10 15 21 28 35 42 49 53 57 59 60 61 64 69 72 70 68 66 65 61 58 55 51 47
Wind_Direction_500mb
260 259 257 254 251 247 249 255 250 253 253 247 253 252 238 241 241 237 239 239 222 229 241 232 232 221 191 196 156 186 49 264 100 162 149 214 190 222 90 243 199 186 178 202 75 49 278 196 86 159 226 299 297 295
259 260 259 257 253 255 245 253 247 246 248 248 246 240 237 236 244 244 246 251 258 229 242 238 243 249 245 242 235 205 212 167 193 109 230 103 257 176 182 254 136 268 190 197 195 212 221 193 264 283 286 287 289 284
266 260 255 257 258 255 251 244 250 249 247 241 244 244 237 241 238 235 243 250 250 240 248 233 241 248 242 231 230 215 224 223 222 228 183 203 231 139 198 243 230 250 218 240 266 253 253 265 271 276 283 284 290 292
262 265 263 256 253 257 258 255 251 247 249 244 246 249 247 240 249 253 246 248 243 241 254 250 248 246 251 242 238 233 242 237 235 234 223 204 206 195 232 244 234 242 196 243 257 258 263 265 264 269 281 291 285 290
265 263 264 263 257 254 255 254 254 253 253 247 245 247 245 243 242 248 251 250 251 231 267 237 247 252 241 234 231 229 230 232 228 209 207 229 225 222 243 251 250 241 249 250 257 259 254 267 273 280 288 278 282 285
270 266 263 261 259 256 254 252 253 254 255 254 250 248 244 237 235 242 253 251 246 243 245 227 249 245 233 226 223 223 229 228 218 221 224 233 237 208 245 255 260 265 253 244 248 258 265 269 275 280 275 280 285 290
262 260 260 259 256 254 250 250 250 252 254 254 251 248 244 238 227 218 213 215 217 219 235 236 222 219 219 221 225 227 231 214 217 230 227 239 247 233 250 258 268 264 256 255 261 259 263 265 260 269 277 282 289 297
264 259 256 256 255 252 250 250 250 251 252 251 251 248 245 240 234 229 229 235 230 213 230 239 245 268 196 182 198 211 209 211 222 226 232 227 255 214 241 247 258 256 255 254 250 251 249 258 264 274 284 290 294 302
267 262 258 254 253 251 249 249 249 250 249 248 247 248 243 233 231 228 231 230 241 223 225 191 193 225 182 185 180 172 187 193 216 209 203 186 222 219 227 254 253 254 240 245 229 239 247 252 262 277 290 297 303 310
261 261 259 258 253 250 249 248 247 247 246 245 238 231 217 209 219 176 167 190 211 205 208 208 187 210 180 177 188 160 190 213 212 216 179 206 242 247 260 248 245 240 243 245 247 244 245 258 274 289 297 304 309 312
270 262 262 256 256 257 255 251 242 239 239 235 215 225 187 173 164 179 182 181 189 206 204 175 199 167 200 144 199 205 192 204 231 245 163 254 266 237 240 240 242 241 242 246 249 260 275 282 295 298 301 306 310 310
261 257 258 256 257 249 248 245 242 231 232 226 228 181 157 182 174 175 177 170 156 204 182 155 191 189 177 176 160 187 206 171 235 124 100 264 244 210 204 207 219 240 261 267 268 277 283 287 292 296 301 306 308 306
266 261 257 253 253 250 245 239 236 239 236 227 197 191 196 165 185 181 166 232 152 183 179 171 173 164 154 184 186 197 207 218 108 107 221 227 148 182 186 192 220 250 261 273 285 289 292 295 297 300 301 304 303 304
264 259 254 252 246 242 243 240 231 229 214 198 161 203 215 179 189 174 169 166 191 176 174 164 131 155 170 173 186 215 167 112 128 237 230 242 160 170 179 206 232 265 286 296 296 296 298 300 300 301 302 304 306 309
273 260 253 246 242 242 235 234 225 222 226 217 178 206 200 160 114 165 165 148 163 175 154 118 99 145 146 206 193 128 93 234 200 226 220 157 153 171 210 260 286 292 297 301 303 305 306 307 306 306 309 307 304 302
299 275 241 236 237 233 221 223 218 222 221 224 155 136 53 62 328 160 179 152 159 156 124 120 129 135 200 185 174 209 152 219 238 201 152 154 169 214 264 288 302 309 312 313 314 314 313 312 308 308 311 310 304 301
305 346 327 234 207 205 204 211 218 206 130 89 56 78 120 90 111 131 147 154 153 150 154 129 152 200 87 172 220 188 209 212 163 148 154 173 197 244 286 307 311 314 316 316 316 317 313 310 309 310 311 315 311 306
280 271 256 228 213 178 185 200 187 114 72 73 140 135 83 100 120 135 156 157 164 165 140 176 127 184 184 184 240 205 150 142 141 153 166 187 219 284 316 326 323 324 326 326 327 330 325 318 317 320 321 327 328 322
360 335 247 201 213 184 132 100 116 99 71 71 107 122 97 111 109 147 165 174 167 145 129 156 167 190 223 134 152 155 156 157 161 171 185 182 200 334 345 351 353 351 349 350 355 353 349 342 336 334 334 339 344 342
300 311 228 230 204 147 96 63 68 83 109 132 109 88 79 82 122 126 144 159 148 156 154 207 199 135 132 152 137 145 149 152 157 153 165 176 154 108 72 58 44 31 19 18 16 18 21 19 11 5 4 5 9 29
239 251 190 201 125 77 85 82 67 78 110 96 121 133 105 117 137 159 147 159 180 218 121 126 128 130 135 144 138 130 133 148 163 170 159 159 150 132 96 70 51 36 29 31 30 28 27 29 29 29 30 35 37 37
191 156 112 97 85 77 77 62 102 116 115 130 133 104 84 95 32 32 167 147 89 114 119 140 145 143 145 144 135 133 137 139 139 140 146 151 155 149 134 82 42 15 10 14 14 15 17 21 29 32 34 37 38 38
146 132 81 69 90 62 47 54 60 34 82 30 67 87 40 22 356 353 206 76 127 155 152 150 151 145 144 142 138 137 133 132 133 137 142 149 155 158 157 340 332 347 357 354 357 1 5 12 7 12 15 15 17 17
113 62 40 48 40 75 79 37 53 64 80 46 47 96 21 338 339 33 216 272 174 170 163 160 157 151 145 143 138 134 133 135 138 141 145 149 156 261 313 319 324 325 343 354 359 1 1 2 4 9 11 10 7 5
99 12 21 23 27 48 45 29 8 45 78 22 110 70 328 348 46 24 217 245 178 175 171 166 163 157 148 145 146 146 146 147 151 164 223 257 270 281 291 306 319 324 336 360 7 9 9 6 3 3 3 2 1 359
67 4 39 308 351 64 36 87 57 153 142 89 200 280 318 93 61 272 248 360 190 191 183 173 164 158 157 155 155 153 162 186 221 263 277 268 259 264 270 276 281 287 291 329 339 344 344 342 343 345 348 345 342 341
59 340 17 31 32 91 67 64 101 91 77 113 245 43 61 81 251 261 2 79 133 166 166 163 159 149 154 162 167 168 190 232 275 285 277 280 278 271 269 263 264 267 289 309 321 327 330 333 336 339 342 348 346 340
76 26 57 337 19 33 128 81 57 81 238 159 110 84 145 175 221 13 25 139 140 156 162 160 159 170 169 166 167 170 188 250 285 296 289 289 284 269 261 255 265 286 301 309 315 318 320 323 326 329 331 335 340 340
36 357 354 9 13 41 55 113 200 76 127 190 126 258 261 277 357 52 44 161 149 166 176 179 181 179 175 180 185 184 199 281 309 308 310 308 314 317 309 302 299 300 302 306 310 311 312 313 315 315 319 321 323 323
2 357 13 23 57 15 350 32 34 18 298 290 294 293 287 292 309 284 221 184 177 176 178 185 189 192 197 208 218 242 267 284 293 293 291 288 287 296 299 295 294 295 295 300 305 307 308 309 309 306 305 306 308 309
344 342 334 23 203 31 344 320 306 289 269 285 277 274 299 322 38 34 209 195 196 195 191 196 203 208 217 230 252 257 262 277 285 288 294 300 304 305 301 297 295 293 294 296 299 301 305 307 309 308 305 304 305 305
335 14 32 0 319 351 353 350 316 297 252 276 293 324 337 337 18 53 21 23 216 214 209 209 211 219 226 236 260 290 304 310 310 313 316 316 313 309 304 300 297 295 292 292 294 297 300 302 304 305 304 304 304 304
318 346 343 320 337 14 357 351 22 8 8 21 25 5 13 20 90 28 20 18 48 191 197 192 194 200 200 180 91 64 28 354 334 322 314 308 304 301 297 294 290 287 286 288 291 293 295 297 298 300 301 301 302 303
Wind_Speed_850mb
57 59 56 55 56 54 53 51 53 50 49 47 45 44 59 47 51 47 57 60 61 27 46 39 51 41 22 23 9 10 3 4 4 5 7 7 7 9 1 8 8 10 8 7 5 3 14 11 4 10 11 44 45 46
58 58 58 59 59 61 57 57 57 57 54 55 52 45 42 57 49 43 54 57 49 56 30 37 66 74 66 59 36 31 18 15 21 5 3 5 4 0 8 12 6 8 13 8 19 12 10 19 30 65 63 49 66 55
58 58 62 61 60 64 66 56 58 59 62 59 55 54 54 53 52 50 56 60 50 53 42 53 81 85 65 58 52 35 25 40 39 40 13 9 14 8 7 13 8 12 19 17 27 25 33 62 74 72 70 71 74 68
62 64 62 63 66 63 63 61 61 62 56 55 54 57 53 50 47 44 53 59 59 30 11 27 48 68 68 55 66 80 75 35 41 42 23 8 7 22 11 16 19 22 8 14 30 31 44 60 65 70 60 55 52 50
61 61 63 64 66 68 65 62 61 63 62 61 60 56 55 51 48 45 53 61 61 55 6 8 24 41 43 45 56 56 69 71 38 18 10 12 13 13 15 14 24 35 37 23 30 48 41 53 60 42 37 36 40 38
63 62 63 62 63 65 66 68 67 63 61 59 59 61 60 54 45 45 41 60 66 63 18 6 19 34 45 51 51 59 63 58 45 21 13 21 40 21 10 20 50 59 55 64 57 72 63 60 51 41 32 31 34 33
64 66 62 61 59 60 61 61 61 62 60 59 59 59 59 56 56 58 17 9 24 39 16 6 7 25 41 52 66 58 56 38 37 28 19 25 41 28 13 29 59 56 62 71 68 66 51 48 25 27 23 29 35 39
59 56 57 56 55 55 56 57 58 58 57 57 57 58 57 60 62 66 71 58 37 23 17 6 6 1 28 20 19 31 28 31 23 19 10 10 21 19 15 30 58 66 66 59 55 45 37 32 28 26 27 30 35 40
52 50 50 54 53 52 52 52 53 53 52 52 52 53 52 67 59 62 68 60 59 39 8 8 6 8 21 15 15 19 19 8 17 11 9 16 6 12 14 32 47 54 36 32 28 24 21 18 19 21 26 31 37 42
51 50 49 45 45 47 50 50 50 50 47 45 46 45 23 36 36 37 29 29 33 33 30 8 22 6 26 21 12 13 16 7 8 10 13 9 21 46 34 38 28 19 18 15 11 13 16 18 20 24 28 31 36 47
40 38 42 47 47 46 45 45 48 45 41 43 29 31 19 33 44 28 16 17 15 3 14 12 38 7 17 5 8 17 5 4 5 8 10 5 9 10 28 22 20 18 18 16 15 16 18 20 24 29 32 36 42 49
46 45 44 43 42 43 43 43 43 45 54 45 26 30 39 21 15 11 11 7 7 13 11 9 18 29 18 17 6 10 6 5 11 3 5 6 9 13 17 16 15 13 11 12 12 15 19 23 27 33 38 44 47 52
46 42 46 50 47 43 38 39 43 45 47 58 28 16 16 18 14 17 18 4 3 7 24 20 7 19 14 18 6 7 10 10 8 4 8 10 9 11 13 9 7 8 9 11 15 20 24 29 32 37 44 44 49 51
50 49 48 46 46 47 45 42 40 41 40 15 15 12 11 8 9 9 12 13 18 27 49 37 14 7 12 8 5 7 3 6 1 5 13 3 10 12 7 6 7 9 12 16 21 25 30 35 40 40 40 43 46 48
35 42 46 46 42 44 46 44 40 46 25 16 13 12 10 6 5 13 20 25 26 35 43 15 11 13 4 5 7 5 3 9 12 11 5 10 13 9 5 5 8 13 18 22 27 32 35 38 40 42 37 37 38 39
21 21 31 39 37 35 36 37 38 46 20 11 4 7 8 5 5 10 21 16 32 45 26 12 7 7 8 6 9 13 11 13 9 5 14 18 9 4 6 8 13 20 24 28 30 33 35 36 37 38 35 30 28 29
10 5 6 19 28 25 27 32 29 12 7 6 3 4 9 12 6 4 10 20 41 37 7 7 11 16 4 5 6 9 12 6 15 24 19 12 7 6 7 10 16 21 24 27 29 27 29 28 29 29 27 20 19 17
8 8 7 8 18 25 25 19 9 7 8 8 1 3 7 9 15 11 12 32 21 19 20 10 13 7 11 13 8 6 7 18 19 16 12 6 4 4 9 12 15 17 18 20 23 23 24 25 24 20 19 17 14 9
12 8 5 11 15 16 9 7 4 7 6 5 10 8 5 12 12 11 14 27 15 16 21 9 7 6 6 2 5 11 22 16 14 15 9 5 2 3 6 9 10 12 15 17 18 18 19 19 20 19 16 12 11 8
14 8 6 16 20 7 9 9 7 10 5 7 8 9 6 8 12 12 14 18 17 8 6 6 4 9 9 12 14 19 19 15 13 12 12 8 4 4 4 6 8 11 12 14 16 17 17 15 15 13 11 9 8 6
12 5 3 16 8 13 13 8 12 9 11 9 14 7 9 11 7 7 9 19 10 4 3 5 11 20 21 16 13 12 10 8 10 10 12 16 12 9 7 7 8 9 11 15 17 19 20 22 22 19 15 12 11 10
8 9 9 9 10 9 13 12 12 10 9 10 7 5 7 3 3 2 4 3 5 5 6 12 23 20 17 15 13 12 12 14 15 16 17 18 15 10 6 4 6 7 10 13 15 17 18 18 19 19 18 17 16 15
12 8 8 9 9 10 6 7 8 8 5 3 4 4 4 4 5 3 0 2 4 6 15 23 20 19 18 18 19 19 20 19 19 18 16 13 9 5 0 3 6 7 10 11 12 13 15 17 17 16 16 15 15 15
10 8 12 11 15 4 5 9 7 6 6 5 2 4 3 5 9 3 2 4 7 20 23 25 26 27 25 24 23 22 20 19 17 15 11 7 3 1 4 6 7 7 10 11 11 13 13 14 15 17 18 18 19 19
7 19 13 11 14 8 8 6 7 5 5 3 3 2 3 8 2 2 3 3 17 27 26 26 27 23 23 25 23 20 17 13 10 6 4 6 8 7 7 8 7 6 6 7 8 10 12 14 16 18 20 22 22 22
14 17 10 2 8 5 2 5 3 3 3 3 1 4 3 4 6 4 5 3 7 26 27 28 29 27 24 21 18 12 8 5 4 4 6 7 9 11 12 12 9 6 4 6 9 12 15 18 20 21 22 23 27 29
10 8 11 13 6 5 7 7 5 5 5 3 3 3 5 5 4 6 5 3 5 16 21 21 21 18 16 15 11 8 4 3 3 7 9 10 12 12 12 12 9 7 8 11 15 19 21 22 23 25 27 26 28 32
8 14 5 14 6 8 7 3 4 3 2 2 3 2 8 10 6 5 5 5 8 19 24 25 24 21 15 13 9 5 3 3 3 5 6 7 6 7 6 6 7 10 13 18 21 23 25 27 29 31 32 35 36 38
9 18 10 8 6 8 4 3 4 2 3 1 4 3 5 3 1 3 4 7 11 18 21 22 21 18 15 11 8 4 2 2 4 4 4 4 4 3 5 8 12 17 22 26 25 28 30 34 37 41 43 47 47 46
12 20 7 3 4 3 4 4 3 2 3 4 7 7 7 4 3 4 5 8 16 20 20 20 18 17 14 12 9 7 7 8 9 11 12 9 11 14 16 18 21 24 29 31 32 31 34 41 45 49 53 55 54 53
14 11 4 3 1 2 5 9 11 9 7 5 8 7 8 9 4 9 4 11 17 21 22 21 19 17 13 8 8 10 10 13 11 12 15 19 20 21 23 26 29 32 35 37 40 44 50 56 58 59 58 58 55 55
12 8 3 5 4 7 7 11 4 2 2 2 2 5 7 7 5 8 16 3 10 17 18 18 15 12 14 14 12 10 9 10 13 17 20 25 30 34 38 41 43 47 50 53 57 62 66 67 68 64 63 60 57 54
7 9 6 6 5 5 12 16 7 6 1 3 3 7 7 4 2 11 14 14 2 9 16 16 13 9 5 2 4 8 10 15 21 28 35 42 49 53 57 59 60 61 64 69 72 70 68 66 65 61 58 55 51 47
Wind_Direction_850mb
260 259 257 254 251 247 249 255 250 253 253 247 253 252 238 241 241 237 239 239 222 229 241 232 232 221 191 196 156 186 49 264 100 162 149 214 190 222 90 243 199 186 178 202 75 49 278 196 86 159 226 299 297 295
259 260 259 257 253 255 245 253 247 246 248 248 246 240 237 236 244 244 246 251 258 229 242 238 243 249 245 242 235 205 212 167 193 109 230 103 257 176 182 254 136 268 190 197 195 212 221 193 264 283 286 287 289 284
266 260 255 257 258 255 251 244 250 249 247 241 244 244 237 241 238 235 243 250 250 240 248 233 241 248 242 231 230 215 224 223 222 228 183 203 231 139 198 243 230 250 218 240 266 253 253 265 271 276 283 284 290 292
262 265 263 256 253 257 258 255 251 247 249 244 246 249 247 240 249 253 246 248 243 241 254 250 248 246 251 242 238 233 242 237 235 234 223 204 206 195 232 244 234 242 196 243 257 258 263 265 264 269 281 291 285 290
265 263 264 263 257 254 255 254 254 253 253 247 245 247 245 243 242 248 251 250 251 231 267 237 247 252 241 234 231 229 230 232 228 209 207 229 225 222 243 251 250 241 249 250 257 259 254 267 273 280 288 278 282 285
270 266 263 261 259 256 254 252 253 254 255 254 250 248 244 237 235 242 253 251 246 243 245 227 249 245 233 226 223 223 229 228 218 221 224 233 237 208 245 255 260 265 253 244 248 258 265 269 275 280 275 280 285 290
262 260 260 259 256 254 250 250 250 252 254 254 251 248 244 238 227 218 213 215 217 219 235 236 222 219 219 221 225 227 231 214 217 230 227 239 247 233 250 258 268 264 256 255 261 259 263 265 260 269 277 282 289 297
264 259 256 256 255 252 250 250 250 251 252 251 251 248 245 240 234 229 229 235 230 213 230 239 245 268 196 182 198 211 209 211 222 226 232 227 255 214 241 247 258 256 255 254 250 251 249 258 264 274 284 290 294 302
267 262 258 254 253 251 249 249 249 250 249 248 247 248 243 233 231 228 231 230 241 223 225 191 193 225 182 185 180 172 187 193 216 209 203 186 222 219 227 254 253 254 240 245 229 239 247 252 262 277 290 297 303 310
261 261 259 258 253 250 249 248 247 247 246 245 238 231 217 209 219 176 167 190 211 205 208 208 187 210 180 177 188 160 190 213 212 216 179 206 242 247 260 248 245 240 243 245 247 244 245 258 274 289 297 304 309 312
270 262 262 256 256 257 255 251 242 239 239 235 215 225 187 173 164 179 182 181 189 206 204 175 199 167 200 144 199 205 192 204 231 245 163 254 266 237 240 240 242 241 242 246 249 260 275 282 295 298 301 306 310 310
261 257 258 256 257 249 248 245 242 231 232 226 228 181 157 182 174 175 177 170 156 204 182 155 191 189 177 176 160 187 206 171 235 124 100 264 244 210 204 207 219 240 261 267 268 277 283 287 292 296 301 306 308 306
266 261 257 253 253 250 245 239 236 239 236 227 197 191 196 165 185 181 166 232 152 183 179 171 173 164 154 184 186 197 207 218 108 107 221 227 148 182 186 192 220 250 261 273 285 289 292 295 297 300 301 304 303 304
264 259 254 252 246 242 243 240 231 229 214 198 161 203 215 179 189 174 169 166 191 176 174 164 131 155 170 173 186 215 167 112 128 237 230 242 160 170 179 206 232 265 286 296 296 296 298 300 300 301 302 304 306 309
273 260 253 246 242 242 235 234 225 222 226 217 178 206 200 160 114 165 165 148 163 175 154 118 99 145 146 206 193 128 93 234 200 226 220 157 153 171 210 260 286 292 297 301 303 305 306 307 306 306 309 307 304 302
299 275 241 236 237 233 221 223 218 222 221 224 155 136 53 62 328 160 179 152 159 156 124 120 129 135 200 185 174 209 152 219 238 201 152 154 169 214 264 288 302 309 312 313 314 314 313 312 308 308 311 310 304 301
305 346 327 234 207 205 204 211 218 206 130 89 56 78 120 90 111 131 147 154 153 150 154 129 152 200 87 172 220 188 209 212 163 148 154 173 197 244 286 307 311 314 316 316 316 317 313 310 309 310 311 315 311 306
280 271 256 228 213 178 185 200 187 114 72 73 140 135 83 100 120 135 156 157 164 165 140 176 127 184 184 184 240 205 150 142 141 153 166 187 219 284 316 326 323 324 326 326 327 330 325 318 317 320 321 327 328 322
360 335 247 201 213 184 132 100 116 99 71 71 107 122 97 111 109 147 165 174 167 145 129 156 167 190 223 134 152 155 156 157 161 171 185 182 200 334 345 351 353 351 349 350 355 353 349 342 336 334 334 339 344 342
300 311 228 230 204 147 96 63 68 83 109 132 109 88 79 82 122 126 144 159 148 156 154 207 199 135 132 152 137 145 149 152 157 153 165 176 154 108 72 58 44 31 19 18 16 18 21 19 11 5 4 5 9 29
239 251 190 201 125 77 85 82 67 78 110 96 121 133 105 117 137 159 147 159 180 218 121 126 128 130 135 144 138 130 133 148 163 170 159 159 150 132 96 70 51 36 29 31 30 28 27 29 29 29 30 35 37 37
191 156 112 97 85 77 77 62 102 116 115 130 133 104 84 95 32 32 167 147 89 114 119 140 145 143 145 144 135 133 137 139 139 140 146 151 155 149 134 82 42 15 10 14 14 15 17 21 29 32 34 37 38 38
146 132 81 69 90 62 47 54 60 34 82 30 67 87 40 22 356 353 206 76 127 155 152 150 151 145 144 142 138 137 133 132 133 137 142 149 155 158 157 340 332 347 357 354 357 1 5 12 7 12 15 15 17 17
113 62 40 48 40 75 79 37 53 64 80 46 47 96 21 338 339 33 216 272 174 170 163 160 157 151 145 143 138 134 133 135 138 141 145 149 156 261 313 319 324 325 343 354 359 1 1 2 4 9 11 10 7 5
99 12 21 23 27 48 45 29 8 45 78 22 110 70 328 348 46 24 217 245 178 175 171 166 163 157 148 145 146 146 146 147 151 164 223 257 270 281 291 306 319 324 336 360 7 9 9 6 3 3 3 2 1 359
67 4 39 308 351 64 36 87 57 153 142 89 200 280 318 93 61 272 248 360 190 191 183 173 164 158 157 155 155 153 162 186 221 263 277 268 259 264 270 276 281 287 291 329 339 344 344 342 343 345 348 345 342 341
59 340 17 31 32 91 67 64 101 91 77 113 245 43 61 81 251 261 2 79 133 166 166 163 159 149 154 162 167 168 190 232 275 285 277 280 278 271 269 263 264 267 289 309 321 327 330 333 336 339 342 348 346 340
76 26 57 337 19 33 128 81 57 81 238 159 110 84 145 175 221 13 25 139 140 156 162 160 159 170 169 166 167 170 188 250 285 296 289 289 284 269 261 255 265 286 301 309 315 318 320 323 326 329 331 335 340 340
36 357 354 9 13 41 55 113 200 76 127 190 126 258 261 277 357 52 44 161 149 166 176 179 181 179 175 180 185 184 199 281 309 308 310 308 314 317 309 302 299 300 302 306 310 311 312 313 315 315 319 321 323 323
2 357 13 23 57 15 350 32 34 18 298 290 294 293 287 292 309 284 221 184 177 176 178 185 189 192 197 208 218 242 267 284 293 293 291 288 287 296 299 295 294 295 295 300 305 307 308 309 309 306 305 306 308 309
344 342 334 23 203 31 344 320 306 289 269 285 277 274 299 322 38 34 209 195 196 195 191 196 203 208 217 230 252 257 262 277 285 288 294 300 304 305 301 297 295 293 294 296 299 301 305 307 309 308 305 304 305 305
335 14 32 0 319 351 353 350 316 297 252 276 293 324 337 337 18 53 21 23 216 214 209 209 211 219 226 236 260 290 304 310 310 313 316 316 313 309 304 300 297 295 292 292 294 297 300 302 304 305 304 304 304 304
318 346 343 320 337 14 357 351 22 8 8 21 25 5 13 20 90 28 20 18 48 191 197 192 194 200 200 180 91 64 28 354 334 322 314 308 304 301 297 294 290 287 286 288 291 293 295 297 298 300 301 301 302 303